Weather in Bobrovka

Russia / Chelyabinsk Oblast     54°02′43″N   61°44′24″E
temp.,
°C
wind,
m/s
gust,
m/s
humid.,
%
clouds,
%
prec.,
mm/h
press.,
hPa
HPBL,
m
18 april, sun
sun1823:00+10ne347465 0.2 1020104
02:00+9e1173100 0.0 101711
05:00+8n357747 0.0 1017120
08:00+7n57550 0.0 1017316
11:00+11n56401 0.0 1016960
14:00+13n78365 0.0 10171816
17:00+8nne9104936 0.0 10201246
20:00+4ne81042100 0.0 10241304
19 april, mon
mon1923:00+1ene8104366 0.0 10271182
02:00−1ene6104478 0.0 1029988
05:00−3ene69445 0.0 1032921
08:00−3ene79386 0.0 1033954
11:000ene78295 0.0 10331353
14:00+2ne672840 0.0 10321722
17:00+2ne67272 0.0 10321829
20:000ne58350 0.0 1033508
20 april, tue
tue2023:00−1ne38460 0.0 1034307
02:00−2ene24490 0.0 1035114
05:00−3ne11480 0.0 103513
08:00−1nne23360 0.0 1036478
11:00+2nne22294 0.0 10351393
14:00+5nnw232660 0.0 10341514
17:00+6nw34250 0.0 10321523
20:00+5w22340 0.0 103111
21 april, wed
wed2123:00+3w36440 0.0 1031111
02:00+2wnw35570 0.0 103189
05:00+1nw35640 0.0 103274
08:00+4nnw35560 0.0 1032239
11:00+8nnw34410 0.0 10331082
14:00+11n33354 0.0 10321474
17:00+12ne33345 0.0 10311554
20:00+10ne11435 0.0 103310
22 april, thu
thu2223:00+8ese22500 0.0 103414
02:00+6se33570 0.0 103424
05:00+5s22630 0.0 103619
08:00+7s23544 0.0 1036180
11:00+12s443914 0.0 10361324
14:00+14sse553337 0.0 10351764
17:00+14s5534100 0.0 10351919
20:00+12sse3646100 0.0 1035122